TimeCET,TemperatureF,Dew PointF,Humidity,Sea Level PressureIn,VisibilityMPH,Wind Direction,Wind SpeedMPH,Gust SpeedMPH,PrecipitationIn,Events,Conditions,WindDirDegrees,DateUTC
12:55 AM,41.0,41.0,100,30.15,6.2,WNW,6.9,-,N/A,,Scattered Clouds,290,2013-03-16 23:55:00
1:00 AM,41,41,98,30.16,6,WNW,6.9,,,,Scattered Clouds,290,2013-03-17 00:00:00
1:55 AM,39.2,39.2,100,30.15,6.2,WNW,6.9,-,N/A,,Scattered Clouds,300,2013-03-17 00:55:00
2:55 AM,39.2,39.2,100,30.15,6.2,WNW,8.1,-,N/A,,Scattered Clouds,290,2013-03-17 01:55:00
3:55 AM,39.2,39.2,100,30.12,6.2,WNW,8.1,-,N/A,,Scattered Clouds,290,2013-03-17 02:55:00
4:00 AM,39,39,100,30.15,6,WNW,8.1,,,,Partly Cloudy,290,2013-03-17 03:00:00
4:55 AM,37.4,37.4,100,30.12,6.2,West,3.5,-,N/A,,Scattered Clouds,260,2013-03-17 03:55:00
5:55 AM,37.4,37.4,100,30.12,6.2,West,6.9,-,N/A,,Mostly Cloudy,280,2013-03-17 04:55:00
6:55 AM,39.2,39.2,100,30.12,6.2,West,5.8,-,N/A,,Mostly Cloudy,280,2013-03-17 05:55:00
7:00 AM,39,39,99,30.14,6,West,5.8,,,,Scattered Clouds,280,2013-03-17 06:00:00
7:55 AM,41.0,41.0,100,30.12,6.2,West,5.8,-,N/A,,Mostly Cloudy,270,2013-03-17 06:55:00
8:55 AM,50.0,48.2,94,30.12,6.2,West,4.6,-,N/A,,Mostly Cloudy,270,2013-03-17 07:55:00
9:55 AM,51.8,46.4,82,30.15,6.2,West,2.3,-,N/A,,Mostly Cloudy,280,2013-03-17 08:55:00
10:00 AM,51,47,82,30.16,7,West,2.3,,,,Scattered Clouds,280,2013-03-17 09:00:00
10:55 AM,53.6,44.6,72,30.12,6.2,West,2.3,-,N/A,,Mostly Cloudy,260,2013-03-17 09:55:00
11:55 AM,59.0,44.6,59,30.09,6.2,SE,4.6,-,N/A,,Mostly Cloudy,130,2013-03-17 10:55:00
12:55 PM,59.0,44.6,59,30.06,6.2,East,6.9,-,N/A,,Mostly Cloudy,90,2013-03-17 11:55:00
1:00 PM,59,45,50,30.08,9,East,6.9,,,,Mostly Cloudy,90,2013-03-17 12:00:00
1:55 PM,57.2,46.4,67,30.06,6.2,East,9.2,-,N/A,,Mostly Cloudy,100,2013-03-17 12:55:00
2:55 PM,59.0,46.4,63,30.04,6.2,East,9.2,-,N/A,,Scattered Clouds,100,2013-03-17 13:55:00
3:55 PM,59.0,46.4,63,30.01,6.2,ENE,9.2,-,N/A,,Partly Cloudy,70,2013-03-17 14:55:00
4:00 PM,60,47,51,30.04,9,ENE,9.2,,,,Scattered Clouds,70,2013-03-17 15:00:00
4:55 PM,59.0,48.2,67,30.01,6.2,NE,6.9,-,N/A,,Partly Cloudy,40,2013-03-17 15:55:00
5:55 PM,57.2,48.2,72,30.04,6.2,NE,4.6,-,N/A,,Partly Cloudy,50,2013-03-17 16:55:00
6:55 PM,53.6,50.0,88,30.01,6.2,ESE,4.6,-,N/A,,Partly Cloudy,110,2013-03-17 17:55:00
7:00 PM,54,50,81,30.03,10,ESE,4.6,,,,Scattered Clouds,110,2013-03-17 18:00:00
7:55 PM,50.0,48.2,94,30.01,6.2,SSE,4.6,-,N/A,,Partly Cloudy,160,2013-03-17 18:55:00
8:55 PM,48.2,48.2,100,30.01,6.2,NW,2.3,-,N/A,,Scattered Clouds,310,2013-03-17 19:55:00
9:55 PM,46.4,46.4,100,30.01,6.2,West,2.3,-,N/A,,Scattered Clouds,270,2013-03-17 20:55:00
10:00 PM,46,46,100,30.03,9,West,2.3,,,,Partly Cloudy,270,2013-03-17 21:00:00
11:55 PM,48.2,48.2,100,30.01,6.2,West,2.3,-,N/A,,Scattered Clouds,270,2013-03-17 22:55:00